TimeEDT,TemperatureF,Dew PointF,Humidity,Sea Level PressureIn,VisibilityMPH,Wind Direction,Wind SpeedMPH,Gust SpeedMPH,PrecipitationIn,Events,Conditions,WindDirDegrees,DateUTC
12:15 AM,77.2,75.6,95,29.92,10.0,South,10.4,18.4,N/A,,Clear,190,2013-07-01 04:15:00
12:35 AM,77.2,75.9,96,29.92,10.0,South,11.5,-,N/A,,Scattered Clouds,180,2013-07-01 04:35:00
12:55 AM,77.4,76.1,96,29.91,10.0,South,11.5,-,N/A,,Mostly Cloudy,190,2013-07-01 04:55:00
1:15 AM,77.2,76.1,96,29.92,10.0,South,9.2,-,N/A,,Scattered Clouds,180,2013-07-01 05:15:00
1:35 AM,77.4,76.1,96,29.92,10.0,South,9.2,-,N/A,,Scattered Clouds,180,2013-07-01 05:35:00
1:55 AM,77.2,76.5,98,29.92,10.0,South,9.2,-,N/A,,Scattered Clouds,180,2013-07-01 05:55:00
2:15 AM,77.2,76.6,98,29.91,10.0,South,9.2,-,N/A,,Clear,170,2013-07-01 06:15:00
2:35 AM,77.4,77.0,99,29.91,10.0,South,9.2,-,N/A,,Clear,180,2013-07-01 06:35:00
2:55 AM,77.2,76.8,99,29.90,10.0,SSE,6.9,-,N/A,,Clear,160,2013-07-01 06:55:00
3:15 AM,77.2,77.0,99,29.89,10.0,South,6.9,-,N/A,,Clear,170,2013-07-01 07:15:00
3:35 AM,77.4,77.2,99,29.90,10.0,South,8.1,-,N/A,,Scattered Clouds,180,2013-07-01 07:35:00
3:55 AM,77.4,77.2,99,29.89,10.0,SSE,6.9,-,N/A,,Scattered Clouds,160,2013-07-01 07:55:00
4:15 AM,77.2,77.2,100,29.90,10.0,SSE,8.1,-,N/A,,Clear,160,2013-07-01 08:15:00
4:35 AM,77.4,77.4,100,29.90,10.0,South,6.9,-,N/A,,Scattered Clouds,170,2013-07-01 08:35:00
4:55 AM,78.1,78.1,100,29.91,10.0,South,8.1,-,N/A,,Mostly Cloudy,180,2013-07-01 08:55:00
5:15 AM,77.9,77.9,100,29.91,10.0,SSE,9.2,-,N/A,,Scattered Clouds,160,2013-07-01 09:15:00
5:35 AM,78.3,78.3,100,29.92,10.0,South,6.9,-,N/A,,Scattered Clouds,170,2013-07-01 09:35:00
5:55 AM,78.1,77.5,98,29.92,10.0,South,8.1,-,N/A,,Scattered Clouds,180,2013-07-01 09:55:00
6:15 AM,77.5,76.1,95,29.92,2.0,South,13.8,20.7,0.18,Rain,Light Rain,190,2013-07-01 10:15:00
6:35 AM,77.9,77.5,99,29.93,10.0,South,10.4,-,0.18,,Scattered Clouds,190,2013-07-01 10:35:00
6:55 AM,77.7,77.2,98,29.94,10.0,South,12.7,-,0.18,,Mostly Cloudy,190,2013-07-01 10:55:00
7:15 AM,77.4,75.7,95,29.95,10.0,South,10.4,16.1,N/A,,Overcast,190,2013-07-01 11:15:00
7:35 AM,77.2,75.4,94,29.96,10.0,South,11.5,-,N/A,,Mostly Cloudy,190,2013-07-01 11:35:00
7:55 AM,77.2,75.2,94,29.96,10.0,South,12.7,-,N/A,,Scattered Clouds,190,2013-07-01 11:55:00
8:15 AM,77.7,75.4,92,29.96,10.0,South,13.8,-,N/A,,Mostly Cloudy,190,2013-07-01 12:15:00
8:35 AM,78.4,76.5,94,29.96,10.0,South,12.7,-,N/A,,Mostly Cloudy,180,2013-07-01 12:35:00
8:55 AM,79.9,76.6,90,29.97,10.0,SSW,15.0,19.6,N/A,,Mostly Cloudy,200,2013-07-01 12:55:00
9:15 AM,80.6,75.6,85,29.97,10.0,South,17.3,20.7,N/A,,Mostly Cloudy,190,2013-07-01 13:15:00
9:35 AM,79.7,74.8,85,29.97,10.0,South,13.8,23.0,N/A,,Mostly Cloudy,190,2013-07-01 13:35:00
9:55 AM,81.3,75.4,82,29.97,10.0,South,13.8,18.4,N/A,,Scattered Clouds,180,2013-07-01 13:55:00
10:15 AM,78.1,73.9,87,29.98,7.0,South,16.1,19.6,N/A,Rain,Light Rain,190,2013-07-01 14:15:00
10:35 AM,76.5,74.5,94,29.98,7.0,South,12.7,-,0.01,Rain,Light Rain,180,2013-07-01 14:35:00
10:55 AM,76.5,74.5,94,29.99,10.0,South,12.7,18.4,0.02,,Clear,190,2013-07-01 14:55:00
11:15 AM,76.5,74.7,94,29.99,10.0,SSW,16.1,23.0,N/A,,Clear,200,2013-07-01 15:15:00
11:35 AM,77.0,75.0,94,30.00,10.0,South,12.7,-,N/A,Rain,Light Rain,190,2013-07-01 15:35:00
11:55 AM,76.6,74.8,94,29.99,10.0,South,12.7,-,N/A,,Clear,190,2013-07-01 15:55:00
12:15 PM,76.3,74.7,95,29.99,10.0,South,12.7,-,N/A,Rain,Rain,190,2013-07-01 16:15:00
12:35 PM,77.9,76.5,95,29.99,10.0,South,11.5,17.3,N/A,,Clear,180,2013-07-01 16:35:00
12:55 PM,77.9,75.6,92,29.99,10.0,South,15.0,-,N/A,,Clear,170,2013-07-01 16:55:00
1:15 PM,77.2,75.2,94,30.00,10.0,South,11.5,-,N/A,,Clear,170,2013-07-01 17:15:00
1:35 PM,76.6,75.2,95,30.00,10.0,South,11.5,17.3,0.01,Rain,Light Rain,190,2013-07-01 17:35:00
1:55 PM,78.4,76.5,94,30.00,10.0,South,15.0,19.6,0.01,,Clear,190,2013-07-01 17:55:00
2:15 PM,79.3,76.8,92,29.99,10.0,South,16.1,-,N/A,,Clear,180,2013-07-01 18:15:00
2:35 PM,79.3,74.3,84,29.99,10.0,South,11.5,-,N/A,,Clear,190,2013-07-01 18:35:00
2:55 PM,78.4,74.5,88,29.99,10.0,South,15.0,-,N/A,,Light Drizzle,190,2013-07-01 18:55:00
3:15 PM,77.9,75.6,92,29.99,10.0,South,12.7,-,N/A,,Drizzle,180,2013-07-01 19:15:00
3:35 PM,77.5,76.3,96,29.98,10.0,South,13.8,18.4,N/A,,Light Drizzle,170,2013-07-01 19:35:00
3:55 PM,77.4,77.0,99,29.99,10.0,SSE,12.7,-,N/A,,Drizzle,160,2013-07-01 19:55:00
4:15 PM,77.9,77.2,98,29.99,10.0,South,13.8,-,0.01,,Scattered Clouds,180,2013-07-01 20:15:00
4:35 PM,78.4,77.5,97,29.99,10.0,South,11.5,17.3,0.01,,Scattered Clouds,180,2013-07-01 20:35:00
4:55 PM,78.3,76.1,93,30.00,10.0,South,19.6,23.0,0.01,,Mostly Cloudy,190,2013-07-01 20:55:00
5:15 PM,77.5,75.4,93,30.00,10.0,South,12.7,19.6,N/A,,Mostly Cloudy,190,2013-07-01 21:15:00
5:35 PM,77.2,75.4,94,30.00,10.0,South,13.8,-,N/A,,Drizzle,190,2013-07-01 21:35:00
5:55 PM,76.8,75.7,96,30.00,10.0,South,13.8,17.3,N/A,,Light Drizzle,180,2013-07-01 21:55:00
6:15 PM,76.6,76.1,98,29.99,10.0,South,13.8,-,N/A,,Drizzle,180,2013-07-01 22:15:00
6:35 PM,76.6,76.1,98,30.00,10.0,South,11.5,19.6,N/A,,Light Drizzle,180,2013-07-01 22:35:00
6:55 PM,76.6,76.3,99,30.00,10.0,South,12.7,17.3,N/A,,Mostly Cloudy,170,2013-07-01 22:55:00
7:15 PM,76.6,76.3,99,30.01,10.0,South,11.5,-,N/A,,Mostly Cloudy,180,2013-07-01 23:15:00
7:35 PM,76.6,76.5,99,30.02,10.0,South,11.5,-,N/A,,Scattered Clouds,180,2013-07-01 23:35:00
7:55 PM,76.6,76.3,99,30.03,10.0,South,11.5,-,N/A,,Scattered Clouds,180,2013-07-01 23:55:00
8:15 PM,76.5,76.1,99,30.03,10.0,South,10.4,-,N/A,,Mostly Cloudy,180,2013-07-02 00:15:00
8:35 PM,75.9,75.4,98,30.03,10.0,South,12.7,-,N/A,,Scattered Clouds,190,2013-07-02 00:35:00
8:55 PM,75.6,75.2,99,30.03,10.0,South,10.4,-,N/A,,Scattered Clouds,180,2013-07-02 00:55:00
9:15 PM,75.6,75.2,99,30.04,10.0,SSW,8.1,-,N/A,,Light Drizzle,200,2013-07-02 01:15:00
9:35 PM,75.2,75.2,100,30.04,10.0,South,8.1,-,N/A,,Scattered Clouds,190,2013-07-02 01:35:00
9:55 PM,75.2,75.2,100,30.05,10.0,SSW,6.9,-,N/A,,Mostly Cloudy,200,2013-07-02 01:55:00
10:15 PM,75.2,75.2,100,30.05,10.0,SSW,8.1,-,N/A,,Scattered Clouds,200,2013-07-02 02:15:00
10:35 PM,75.6,75.2,99,30.06,10.0,SSW,10.4,-,N/A,,Mostly Cloudy,200,2013-07-02 02:35:00
10:55 PM,75.7,75.2,98,30.06,10.0,SSW,11.5,-,N/A,,Scattered Clouds,200,2013-07-02 02:55:00
11:15 PM,75.6,75.2,99,30.07,10.0,South,11.5,-,N/A,,Scattered Clouds,190,2013-07-02 03:15:00
11:35 PM,75.6,75.2,99,30.07,10.0,South,10.4,16.1,N/A,,Clear,190,2013-07-02 03:35:00
11:55 PM,75.6,75.2,99,30.06,10.0,South,10.4,-,N/A,,Clear,190,2013-07-02 03:55:00